Location: Sternwarte auf dem Internationalen Platz Vogelsang IP
(50.5721°N, 6.4398°E)
Time: 11:56:42
(UTC+01:00)

ACS3 Solar Sail - Pass Details

Date: 18 November 2025
Orbit: 888 x 1003 km, 97.3° (Epoch: 07 December)

Event Time Altitude Azimuth Distance (km) Brightness Sun altitude
Rises 02:25:38 0° 24° (NNE) 3,573 5.3 -50.0°
Reaches altitude 10° 02:28:53 10° 42° (NE) 2,647 4.6 -49.6°
Enters shadow 02:29:00 10° 43° (NE) 2,619 4.5 -49.5°
